Date String (YYYY-MM-DD hh:mm:ss) UTC,Instrument flags,Ambient pressure (hPa),Sample flow (lpm),Bypass flow (lpm),Sample temperature (°C),Ambient temperature (°C),ASC tube jacket temperature (°C),LED temperature (°C),Box temperature (°C),Sample RH (%),Span deviation,Mass concentration (μg/m³),Mass concentration (μg/m³),Mass concentration (μg/m³)
DateTimeUTC,F1_M11,P_M11,Q1_M11,Q2_M11,T1_M11,T2_M11,T3_M11,T4_M11,T5_M11,U1_M11,ZSPAN_M11,X0_M11,X2_M11,X1_M11
2021-12-28 19:00:00,,0809.8,5.00,0.00,21.8,21.0,00.0,31.0,23.4,06.7,0000.0,0015.02,0002.91,0000.76
2021-12-28 19:01:00,,0809.7,5.00,0.00,21.8,21.1,00.0,31.0,23.4,06.8,0000.0,0015.76,0002.93,0000.77
2021-12-28 19:02:00,,0809.8,4.99,0.00,21.9,21.8,00.0,31.0,23.6,06.7,0000.0,0015.97,0003.07,0000.78
2021-12-28 19:03:00,,0809.8,5.00,0.00,22.0,22.7,00.0,31.1,24.0,06.6,0000.0,0015.93,0003.16,0000.79
2021-12-28 19:04:00,,0809.8,5.01,0.00,22.2,23.1,00.0,31.1,24.2,06.6,0000.0,0015.71,0003.17,0000.79
2021-12-28 19:05:00,,0809.7,5.00,0.00,22.3,22.9,00.0,31.1,24.1,06.6,0000.0,0015.85,0003.17,0000.79
2021-12-28 19:06:00,,0809.7,5.00,0.00,22.2,22.6,00.0,31.1,24.0,06.6,0000.0,0015.89,0003.21,0000.79
2021-12-28 19:07:00,,0809.7,4.99,0.00,22.2,22.3,00.0,31.1,23.9,06.6,0000.0,0016.00,0003.19,0000.79
2021-12-28 19:08:00,,0809.6,5.01,0.00,22.2,22.1,00.0,31.1,23.8,06.6,0000.0,0015.34,0003.16,0000.77
2021-12-28 19:09:00,,0809.4,5.01,0.00,22.2,21.9,00.0,31.1,23.8,06.6,0000.0,0016.23,0003.21,0000.77
2021-12-28 19:10:00,,0809.4,4.99,0.00,22.1,21.8,00.0,31.1,23.8,06.6,0000.0,0015.65,0003.22,0000.77
2021-12-28 19:11:00,,0809.4,5.01,0.00,22.1,21.7,00.0,31.1,23.7,06.7,0000.0,0015.14,0003.22,0000.77
2021-12-28 19:12:00,,0809.4,5.00,0.00,22.1,21.6,00.0,31.1,23.7,06.7,0000.0,0014.87,0003.18,0000.78
2021-12-28 19:13:00,,0809.4,4.99,0.00,22.0,21.5,00.0,31.1,23.6,06.7,0000.0,0015.01,0003.09,0000.77
2021-12-28 19:14:00,,0809.4,5.01,0.00,22.0,21.4,00.0,31.1,23.6,06.8,0000.0,0015.02,0002.98,0000.76
2021-12-28 19:15:00,,0809.4,5.00,0.00,22.0,21.3,00.0,31.1,23.6,06.8,0000.0,0013.88,0002.92,0000.76
2021-12-28 19:16:00,,0809.4,4.99,0.00,22.0,21.4,00.0,31.1,23.6,06.7,0000.0,0014.05,0002.92,0000.76
2021-12-28 19:17:00,,0809.4,5.01,0.00,22.0,21.4,00.0,31.1,23.6,06.7,0000.0,0013.97,0002.87,0000.77
2021-12-28 19:18:00,,0809.4,5.00,0.00,21.9,21.3,00.0,31.1,23.5,06.7,0000.0,0013.33,0002.84,0000.77
2021-12-28 19:19:00,,0809.4,5.01,0.00,21.9,21.1,00.0,31.1,23.5,06.7,0000.0,0013.66,0002.74,0000.78
2021-12-28 19:20:00,,0809.4,5.01,0.00,21.9,21.1,00.0,31.0,23.4,06.7,0000.0,0013.06,0002.69,0000.79
2021-12-28 19:21:00,,0809.4,5.00,0.00,21.8,21.0,00.0,31.0,23.4,06.7,0000.0,0012.06,0002.63,0000.80
2021-12-28 19:22:00,,0809.3,4.99,0.00,21.8,21.0,00.0,31.0,23.4,06.7,0000.0,0011.69,0002.53,0000.81
2021-12-28 19:23:00,,0809.3,5.01,0.00,21.8,21.0,00.0,31.0,23.4,06.7,0000.0,0011.20,0002.51,0000.81
2021-12-28 19:24:00,,0809.4,4.99,0.00,21.8,21.0,00.0,31.0,23.3,06.7,0000.0,0010.91,0002.47,0000.81
2021-12-28 19:25:00,,0809.3,5.00,0.00,21.7,20.9,00.0,30.9,23.3,06.7,0000.0,0010.92,0002.51,0000.82
2021-12-28 19:26:00,,0809.3,5.00,0.00,21.7,20.9,00.0,30.9,23.3,06.7,0000.0,0012.02,0002.60,0000.84
2021-12-28 19:27:00,,0809.3,4.99,0.00,21.7,20.9,00.0,30.9,23.3,06.7,0000.0,0011.82,0002.63,0000.85
2021-12-28 19:28:00,,0809.4,5.00,0.00,21.7,20.9,00.0,30.9,23.3,06.7,0000.0,0011.23,0002.56,0000.85
2021-12-28 19:29:00,,0809.3,5.01,0.00,21.7,21.1,00.0,30.9,23.3,06.7,0000.0,0011.57,0002.50,0000.86
2021-12-28 19:30:00,,0809.3,5.00,0.00,21.8,22.0,00.0,30.9,23.6,06.7,0000.0,0011.30,0002.45,0000.86
2021-12-28 19:31:00,,0809.4,5.01,0.00,22.0,22.9,00.0,31.0,23.9,06.6,0000.0,0010.75,0002.44,0000.86
2021-12-28 19:32:00,,0809.5,4.98,0.00,22.1,23.0,00.0,31.0,24.1,06.6,0000.0,0011.63,0002.38,0000.86
2021-12-28 19:33:00,,0809.4,5.01,0.00,22.1,22.7,00.0,31.0,24.0,06.6,0000.0,0012.75,0002.37,0000.85
2021-12-28 19:34:00,,0809.4,4.99,0.00,22.1,22.4,00.0,31.0,23.9,06.6,0000.0,0012.66,0002.32,0000.86
2021-12-28 19:35:00,,0809.4,5.00,0.00,22.1,22.2,00.0,31.0,23.8,06.6,0000.0,0012.81,0002.30,0000.86
2021-12-28 19:36:00,,0809.4,5.00,0.00,22.1,22.0,00.0,31.0,23.7,06.6,0000.0,0012.17,0002.28,0000.86
2021-12-28 19:37:00,,0809.4,5.00,0.00,22.1,21.9,00.0,31.0,23.7,06.6,0000.0,0011.53,0002.20,0000.85
2021-12-28 19:38:00,,0809.4,5.01,0.00,22.0,21.7,00.0,31.0,23.7,06.6,0000.0,0010.69,0002.11,0000.83
2021-12-28 19:39:00,,0809.4,5.00,0.00,22.0,21.6,00.0,31.0,23.6,06.5,0000.0,0010.87,0002.07,0000.81
2021-12-28 19:40:00,,0809.3,5.00,0.00,22.0,21.4,00.0,31.0,23.5,06.6,0000.0,0011.44,0002.17,0000.81
2021-12-28 19:41:00,,0809.3,5.00,0.00,21.9,21.3,00.0,31.0,23.4,06.6,0000.0,0011.24,0002.17,0000.80
2021-12-28 19:42:00,,0809.3,4.98,0.00,21.9,21.3,00.0,31.0,23.5,06.6,0000.0,0011.34,0002.19,0000.80
2021-12-28 19:43:00,,0809.4,5.01,0.00,21.9,21.3,00.0,31.0,23.5,06.7,0000.0,0010.53,0002.22,0000.80
2021-12-28 19:44:00,,0809.4,4.99,0.00,21.9,21.3,00.0,31.0,23.5,06.7,0000.0,0009.00,0002.17,0000.79
2021-12-28 19:45:00,,0809.4,5.01,0.00,21.8,21.3,00.0,31.0,23.4,06.7,0000.0,0009.00,0002.25,0000.79
2021-12-28 19:46:00,,0809.4,5.00,0.00,21.8,21.2,00.0,31.0,23.3,06.7,0000.0,0009.30,0002.34,0000.80
2021-12-28 19:47:00,,0809.4,4.99,0.00,21.8,21.1,00.0,30.9,23.3,06.7,0000.0,0009.21,0002.35,0000.81
2021-12-28 19:48:00,,0809.4,4.99,0.00,21.7,21.1,00.0,30.9,23.3,06.7,0000.0,0009.55,0002.36,0000.82
2021-12-28 19:49:00,,0809.5,5.00,0.00,21.7,21.1,00.0,30.9,23.3,06.8,0000.0,0010.18,0002.46,0000.83
2021-12-28 19:50:00,,0809.5,5.01,0.00,21.7,21.0,00.0,30.9,23.3,06.8,0000.0,0010.68,0002.58,0000.85
2021-12-28 19:51:00,,0809.4,5.01,0.00,21.7,21.0,00.0,30.9,23.2,06.8,0000.0,0011.28,0002.56,0000.86
2021-12-28 19:52:00,,0809.4,5.00,0.00,21.6,21.0,00.0,30.9,23.2,06.8,0000.0,0011.48,0002.63,0000.88
2021-12-28 19:53:00,,0809.3,5.00,0.00,21.6,21.0,00.0,30.8,23.2,06.8,0000.0,0011.45,0002.71,0000.88
2021-12-28 19:54:00,,0809.2,4.98,0.00,21.6,20.9,00.0,30.8,23.2,06.8,0000.0,0011.55,0002.74,0000.89
2021-12-28 19:55:00,,0809.3,5.01,0.00,21.6,21.0,00.0,30.8,23.2,06.8,0000.0,0011.77,0002.79,0000.91
2021-12-28 19:56:00,,0809.3,4.99,0.00,21.6,21.0,00.0,30.8,23.2,06.8,0000.0,0011.64,0002.72,0000.91
2021-12-28 19:57:00,,0809.3,5.01,0.00,21.6,21.0,00.0,30.8,23.2,06.8,0000.0,0011.61,0002.69,0000.91
2021-12-28 19:58:00,,0809.3,5.01,0.00,21.6,21.3,00.0,30.8,23.3,06.8,0000.0,0012.44,0002.68,0000.90
2021-12-28 19:59:00,,0809.3,4.99,0.00,21.8,22.2,00.0,30.8,23.7,06.8,0000.0,0012.45,0002.68,0000.89
